Location: Owl Hollow
(40.7341°N, 104.4073°W)
Time: 20:30:59
(UTC-06:00)

ISS - Visible Passes

Search period start: 24 July 2017 00:00
Search period end: 03 August 2017 00:00
Orbit: 400 x 408 km, 51.6° (Epoch: 25 July)

Date Brightness Start Highest point End Pass type
(mag) Time Alt. Az. Time Alt. Az. Time Alt. Az.
24 Jul -0.4 00:45:04 10° NNW 00:46:30 12° N 00:47:57 10° NNE visible
24 Jul -0.8 02:21:42 10° NNW 02:23:59 17° NNE 02:26:16 10° ENE visible
24 Jul -3.7 03:57:38 10° NW 04:00:53 76° NNE 04:04:08 10° ESE visible
24 Jul -2.2 22:13:39 10° W 22:16:41 36° NNW 22:19:43 10° NE visible
24 Jul -0.5 23:52:08 10° NW 23:53:52 14° N 23:55:36 10° NNE visible
25 Jul -0.6 01:29:33 10° NNW 01:31:23 14° N 01:33:14 10° NE visible
25 Jul -2.6 03:07:44 34° N 03:08:31 41° NNE 03:11:38 10° ESE visible
25 Jul -2.6 04:42:15 10° W 04:44:49 22° SW 04:47:23 10° S visible
25 Jul -3.4 21:21:04 10° WSW 21:24:17 64° NW 21:27:30 10° NE visible
25 Jul -0.7 22:59:06 10° WNW 23:01:15 16° NNW 23:03:25 10° NNE visible
26 Jul -0.5 00:37:15 10° NNW 00:38:45 13° N 00:39:29 12° NNE visible
26 Jul -1.1 22:06:05 10° WNW 22:08:40 21° NNW 22:11:15 10° NNE visible
26 Jul -0.5 23:44:40 10° NNW 23:46:04 12° N 23:47:29 10° NNE visible
27 Jul -1.8 21:13:12 10° W 21:16:08 31° NNW 21:19:05 10° NE visible
27 Jul -0.6 22:51:47 10° NW 22:53:23 13° N 22:55:00 10° NNE visible
28 Jul -0.5 00:28:54 10° NNW 00:29:56 14° N 00:29:56 14° N visible
28 Jul -0.8 21:58:43 10° NW 22:00:43 15° NNW 22:02:43 10° NNE visible
28 Jul -0.7 23:36:38 10° NNW 23:38:14 13° N 23:39:05 12° NNE visible
29 Jul -1.0 21:05:38 10° WNW 21:08:05 19° NNW 21:10:31 10° NNE visible
29 Jul -0.7 22:44:08 10° NNW 22:45:31 12° N 22:46:55 10° NNE visible
30 Jul -0.5 00:20:22 10° NNW 00:20:53 13° NNW 00:20:53 13° NNW visible
30 Jul -0.8 21:51:17 10° NNW 21:52:48 13° N 21:54:18 10° NNE visible
30 Jul -1.0 23:28:09 10° NNW 23:30:05 16° N 23:30:05 16° N visible
31 Jul -0.9 20:58:12 10° NW 21:00:05 14° NNW 21:01:57 10° NNE visible
31 Jul -0.9 22:35:53 10° NNW 22:37:36 13° N 22:39:18 10° NE visible
01 Aug -0.4 00:11:45 10° NW 00:11:56 11° NW 00:11:56 11° NW visible
01 Aug -0.9 21:43:26 10° NNW 21:44:51 12° N 21:46:17 10° NNE visible
01 Aug -1.2 23:19:30 10° NNW 23:21:11 20° N 23:21:11 20° N visible
02 Aug -0.9 20:50:39 10° NNW 20:52:05 12° N 20:53:32 10° NNE visible
02 Aug -1.4 22:27:17 10° NNW 22:29:34 17° NNE 22:30:27 16° NE visible
